Regional Weather Roundup
Issued by NWS

Home | Current Version | Previous Version | Text Only | Print | Product List | Glossary Off
Versions: 1 2 3 4 5 6 7 8 9 10 11 12 13 14 15 16 17 18 19 20 21 22 23 24 25 26 27 28 29 30 31 32 33 34 35 36 37 38 39 40 41 42 43 44 45 46 47 48 49 50

000
ASUS43 KMKX 232200
RWRWI

WISCONSIN REGIONAL WEATHER ROUNDUP
NATIONAL WEATHER SERVICE MILWAUKEE/SULLIVAN WI
500 PM CDT SAT JUL 23 2016

NOTE: "FAIR" INDICATES FEW OR NO CLOUDS BELOW 12,000 FEET WITH NO
SIGNIFICANT WEATHER AND/OR OBSTRUCTIONS TO VISIBILITY.

WIZ001-002-006>008-014>016-023>028-232300-
NORTHWEST WISCONSIN

CITY           SKY/WX    TMP DP  RH WIND       PRES   REMARKS
SUPERIOR ARPT  CLOUDY    64  61  89 NE7       29.90R
ASHLAND        CLOUDY    71  65  81 N5        29.89F
HAYWARD        LGT RAIN  73  69  87 CALM      29.90F
SIREN          RAIN      70  66  88 S8        29.87F
CUMBERLAND     RAIN      70  68  94 NE6       29.89F
RICE LAKE      RAIN      72  69  90 N6        29.90S
CHETEK         CLOUDY    73  72  94 CALM      29.88S
LADYSMITH      LGT RAIN  74  69  84 E3        29.92F
EAU CLAIRE     NOT AVBL
MENOMONIE      CLOUDY    74  74  97 SE8       29.84F
NEW RICHMOND   RAIN      70  69  98 N8        29.89R
OSCEOLA        HVY RAIN  70  70 100 S5        29.89F
$$

WIZ003>005-009-010-017-018-232300-
NORTH CENTRAL WISCONSIN

CITY           SKY/WX    TMP DP  RH WIND       PRES   REMARKS
MANITOWISH WTR CLOUDY    78  71  78 S3        29.95R HX  80
ARBOR VITAE    CLOUDY    80  69  69 S6        29.96R HX  82
WOODRUFF       CLOUDY    80  69  69 S6        29.96R HX  82
RHINELANDER    CLOUDY    78  67  68 S5        29.97S HX  80
EAGLE RIVER    CLOUDY    79  60  53 SE6       29.96S HX  80
LAND O LAKES   CLOUDY    81  63  54 S7        29.97R HX  82
PHILLIPS       LGT RAIN  74  73  96 E3        29.92F
TOMAHAWK       LGT RAIN  73  70  91 CALM      29.95F
MEDFORD        LGT RAIN  71  71 100 SE8       29.91F
MERRILL        LGT RAIN  75  73  92 S5        29.94F
$$

WIZ029-030-035-036-043>047-232300-
CENTRAL WISCONSIN

CITY           SKY/WX    TMP DP  RH WIND       PRES   REMARKS
WAUSAU         LGT RAIN  76  70  82 S8        29.93F
MOSINEE        LGT RAIN  73  70  88 SW10      29.97F
MARSHFIELD     LGT RAIN  72  68  87 S12       29.92F
STEVENS POINT  LGT RAIN  74  70  88 SW8       29.97F
WAUPACA        LGT RAIN  83  79  87 CALM      29.96S HX  95
WAUTOMA        LGT RAIN  76  74  93 S3        29.97S
WISC RAPIDS    RAIN      72  68  87 S7        29.97F FOG
CAMP DOUGLAS   LGT RAIN  72  70  94 S3        29.98S FOG
$$

WIZ011>013-019>022-031-037>040-048>050-232300-
NORTHEAST WISCONSIN

CITY           SKY/WX    TMP DP  RH WIND       PRES   REMARKS
ANTIGO         CLOUDY    76  69  80 CALM      29.97F
SHAWANO        CLOUDY    84  72  68 SE5       29.94F HX  89
OCONTO         CLOUDY    80  70  70 E3        29.94F HX  84
STURGEON BAY   CLOUDY    81  66  60 SE5       29.97F HX  83
GREEN BAY      CLOUDY    80  70  71 S7        29.94F HX  83
MANITOWOC      NOT AVBL
APPLETON       LGT RAIN  81  66  61 VRB5      29.94F HX  83
CLINTONVILLE   LGT RAIN  81  72  74 S5        29.93F HX  84
OSHKOSH        LGT RAIN  80  75  84 SW3       29.95F HX  85
$$

WIZ032>034-041-042-053>061-232300-
SOUTHWEST WISCONSIN

CITY           SKY/WX    TMP DP  RH WIND       PRES   REMARKS
LA CROSSE      RAIN      72  68  87 S13       29.89F
SPARTA         NOT AVBL
VIROQUA        CLOUDY    68  68 100 SE10      29.95F
BOSCOBEL       TSTM      71  69  93 E6        29.97S FOG
PRAIRIE DU CHI RAIN      69  68  96 E7        29.94F
PLATTEVILLE    CLOUDY    75  74  95 E5        29.93F
$$

WIZ056-057-062-063-064-067-068-232300-
SOUTH CENTRAL WISCONSIN

CITY           SKY/WX    TMP DP  RH WIND       PRES   REMARKS
REEDSBURG      LGT RAIN N/A N/A N/A NW9       29.98R
BARABOO/DELLS  CLOUDY    73  71  92 CALM      29.96F
LONE ROCK      TSTM      73  72  94 NW7       29.97R FOG
MINERAL POINT  CLOUDY    73  72  94 E5        29.94S
MADISON        LGT RAIN  73  70  90 SE3       29.94F
MIDDLETON      CLOUDY    74  73  98 SE6       29.96F
WATERTOWN      LGT RAIN  72  72 100 SE5       29.95F
MONROE         CLOUDY    72  72 100 E6        29.96F
JANESVILLE     PTSUNNY   73  73 100 E6        29.95F
$$

WIZ051-052-058>065-066-070>072-232300-
SOUTHEAST WISCONSIN

CITY           SKY/WX    TMP DP  RH WIND       PRES   REMARKS
MILWAUKEE      TSTM      77  70  79 W7        29.99R
WAUKESHA       RAIN      70  68  94 E5        29.98F
MILWAUKEE/TIMM TSTM      73  66  78 N7        29.98S
RACINE         TSTM      75  72  90 W14       30.02R VSB 3/4
BURLINGTON     LGT RAIN  73  70  91 NE9G17    29.97F
KENOSHA        TSTM      73  68  84 N18G32    29.99R
FOND DU LAC    CLOUDY    77  72  84 SW6       29.96S
SHEBOYGAN      CLOUDY    79  70  74 S8        29.98R HX  82
WEST BEND      RAIN      77  73  88 S8        30.01R
JUNEAU         LGT RAIN  71  70  95 E8        29.96F
$$

LSZ147-162-232300-
LAKE SUPERIOR

STATION/POSITION TIME  TEMP    WIND        PRES    WAVE
                       AIR SEA DIR/SP/G            HT/PER
                 (UTC) (F)     (DEG/KT/KT) (MB)    (FT/S)
W MID LAKE BUOY  2050   61 58   70/ 14/ 16 1012.0F   1/ 3
DEVILS ISLAND    2100   63      70/ 11/ 13 1012.4F
PORT WING        2100   64      30/ 16/ 19 1012.2S
SAXON HARBOR     2100   71     290/  2/  2 1011.9F
$$

LMZ867-665-643>646-232300-
LAKE MICHIGAN

STATION/POSITION TIME  TEMP    WIND        PRES    WAVE
                       AIR SEA DIR/SP/G            HT/PER
                 (UTC) (F)     (DEG/KT/KT) (MB)    (FT/S)
CHAMBERS ISLAND  2100   82     120/  2/  5 1014.6R
S GREEN BAY BUOY 2100   78 76  110/  4/  4   N/A
N MID LAKE BUOY  2050   74 73   CALM  /  2 1014.1F   1
NORTHPORT PIER   2100   76     150/  5/  7 1014.2F
KEWAUNEE LAKESHO 2100   72      40/  4/  5 1014.6F
SHEBOYGAN LAKESH 2100   69        CALM     1014.9F
PORT WASHINGTON  2140   76     260/  4/  7 1015.9R
MILWAUKEE LAKESH 2110   70     230/  6/  8   N/A
S MID LAKE BUOY  2050   78 78   70/  4/  4 1013.5F   0
KENOSHA   LAKESH 2100   76      CALM  /  4 1014.2S
$$

TC  - TEMPERATURE IN CELSIUS
VSB - VISIBILITY IN STATUTE MILES
WCI - WIND CHILL INDEX
HX  - HEAT INDEX





USA.gov is the U.S. government's official web portal to all federal, state and local government web resources and services.